When you browse on this site, cookies collect data to enhance your experience and personalize the content and advertising you see.
Visit our Privacy Policy to learn more. By continuing to use the site, you agree to this use of cookies and data.

Hourly Weather Geertruidenberg

Today, 22 September, Tuesday

Time Temperature Precipitation Wind Pressure Humidity
00:00 +14°C° 0 mm 1 mps 760 mmHg 85%
01:00 +14°C° 0 mm 1 mps 760 mmHg 85%
02:00 +13°C° 0 mm 1 mps 759 mmHg 85%
03:00 +12°C° 0 mm 0 mps 759 mmHg 85%
04:00 +12°C° 0 mm 0 mps 759 mmHg 85%
05:00 +12°C° 0 mm 0 mps 759 mmHg 85%
06:00 +12°C° 0 mm 0 mps 759 mmHg 84%
07:00 +15°C° 0 mm 1 mps 758 mmHg 78%
08:00 +18°C° 0 mm 1 mps 758 mmHg 71%
09:00 +20°C° 0 mm 1 mps 758 mmHg 64%
10:00 +22°C° 0 mm 1 mps 758 mmHg 58%
11:00 +23°C° 0 mm 2 mps 758 mmHg 52%
12:00 +24°C° 0 mm 2 mps 757 mmHg 46%
13:00 +24°C° 0 mm 2 mps 757 mmHg 45%
14:00 +24°C° 0 mm 1 mps 756 mmHg 44%
15:00 +25°C° 0 mm 1 mps 755 mmHg 43%
16:00 +22°C° 0 mm 1 mps 755 mmHg 49%
17:00 +20°C° 0 mm 1 mps 755 mmHg 55%
18:00 +18°C° 0 mm 1 mps 755 mmHg 62%
19:00 +18°C° 0 mm 1 mps 755 mmHg 63%
20:00 +16°C° 0 mm 1 mps 754 mmHg 64%
21:00 +15°C° 0 mm 1 mps 754 mmHg 66%
22:00 +15°C° 0 mm 1 mps 754 mmHg 65%
23:00 +15°C° 0 mm 2 mps 754 mmHg 65%

Tomorrow, 23 September, Wednesday

Time Temperature Precipitation Wind Pressure Humidity
00:00 +15°C° 0 mm 2 mps 754 mmHg 65%
01:00 +13°C° 0 mm 3 mps 754 mmHg 70%
02:00 +13°C° 0 mm 3 mps 753 mmHg 74%
03:00 +13°C° 0 mm 3 mps 753 mmHg 79%
04:00 +13°C° 0 mm 3 mps 753 mmHg 82%
05:00 +13°C° 0 mm 3 mps 753 mmHg 85%
06:00 +13°C° 0 mm 3 mps 753 mmHg 89%
07:00 +15°C° 0 mm 4 mps 753 mmHg 83%
08:00 +18°C° 0 mm 4 mps 753 mmHg 78%
09:00 +20°C° 0 mm 5 mps 753 mmHg 73%
10:00 +20°C° 0.1 mm 6 mps 753 mmHg 71%
11:00 +20°C° 0.1 mm 7 mps 753 mmHg 69%
12:00 +21°C° 0.1 mm 7 mps 752 mmHg 67%
13:00 +21°C° 0.1 mm 7 mps 752 mmHg 67%
14:00 +20°C° 0.1 mm 6 mps 752 mmHg 68%
15:00 +20°C° 0.1 mm 6 mps 751 mmHg 68%
16:00 +19°C° 0.1 mm 5 mps 751 mmHg 71%
17:00 +18°C° 0.1 mm 4 mps 751 mmHg 74%
18:00 +17°C° 0.1 mm 3 mps 751 mmHg 77%
19:00 +17°C° 0.3 mm 4 mps 750 mmHg 80%
20:00 +17°C° 0.3 mm 4 mps 750 mmHg 83%
21:00 +15°C° 0.3 mm 4 mps 750 mmHg 87%
22:00 +16°C° 2.4 mm 5 mps 749 mmHg 88%
23:00 +16°C° 2.4 mm 6 mps 749 mmHg 89%

Day after tomorrow, 24 September, Thursday

Time Temperature Precipitation Wind Pressure Humidity
00:00 +16°C° 2.4 mm 7 mps 748 mmHg 91%
01:00 +15°C° 0.1 mm 7 mps 748 mmHg 89%
02:00 +14°C° 0.1 mm 6 mps 748 mmHg 87%
03:00 +14°C° 0.1 mm 6 mps 749 mmHg 85%
04:00 +13°C° 0 mm 5 mps 749 mmHg 85%
05:00 +12°C° 0 mm 5 mps 750 mmHg 85%
06:00 +10°C° 0 mm 5 mps 750 mmHg 85%
07:00 +12°C° 0 mm 5 mps 751 mmHg 78%
08:00 +13°C° 0 mm 6 mps 751 mmHg 72%
09:00 +14°C° 0 mm 6 mps 751 mmHg 66%
10:00 +15°C° 0 mm 7 mps 751 mmHg 62%
11:00 +16°C° 0 mm 7 mps 751 mmHg 58%
12:00 +16°C° 0 mm 7 mps 751 mmHg 54%
13:00 +16°C° 0 mm 7 mps 750 mmHg 54%
14:00 +16°C° 0 mm 6 mps 749 mmHg 55%
15:00 +16°C° 0 mm 6 mps 749 mmHg 56%
16:00 +15°C° 0.9 mm 5 mps 749 mmHg 67%
17:00 +13°C° 0.9 mm 4 mps 748 mmHg 79%
18:00 +11°C° 0.9 mm 4 mps 748 mmHg 90%
19:00 +11°C° 0.5 mm 4 mps 748 mmHg 90%
20:00 +11°C° 0.5 mm 4 mps 747 mmHg 90%
21:00 +10°C° 0.5 mm 4 mps 747 mmHg 90%
22:00 +10°C° 0.1 mm 5 mps 747 mmHg 89%
23:00 +10°C° 0.1 mm 6 mps 747 mmHg 88%

25 September, Friday

Time Temperature Precipitation Wind Pressure Humidity
00:00 +10°C° 0.1 mm 6 mps 747 mmHg 88%
01:00 +9°C° 0.1 mm 6 mps 747 mmHg 88%
02:00 +8°C° 0.1 mm 5 mps 746 mmHg 88%
03:00 +7°C° 0.1 mm 5 mps 746 mmHg 89%
04:00 +7°C° 0 mm 5 mps 746 mmHg 89%
05:00 +6°C° 0 mm 4 mps 747 mmHg 89%
06:00 +6°C° 0 mm 4 mps 747 mmHg 90%
07:00 +7°C° 0 mm 4 mps 747 mmHg 85%
08:00 +9°C° 0 mm 3 mps 747 mmHg 81%
09:00 +10°C° 0 mm 3 mps 747 mmHg 77%
10:00 +11°C° 0 mm 3 mps 747 mmHg 72%
11:00 +12°C° 0 mm 3 mps 747 mmHg 67%
12:00 +14°C° 0 mm 3 mps 748 mmHg 62%
13:00 +13°C° 0.4 mm 4 mps 748 mmHg 67%
14:00 +13°C° 0.4 mm 5 mps 748 mmHg 72%
15:00 +11°C° 0.4 mm 6 mps 748 mmHg 77%
16:00 +11°C° 0.5 mm 6 mps 749 mmHg 78%
17:00 +10°C° 0.5 mm 5 mps 750 mmHg 79%
18:00 +10°C° 0.5 mm 5 mps 750 mmHg 80%
19:00 +9°C° 0.1 mm 5 mps 751 mmHg 80%
20:00 +9°C° 0.1 mm 5 mps 751 mmHg 80%
21:00 +9°C° 0.1 mm 5 mps 752 mmHg 80%
22:00 +9°C° 0.1 mm 6 mps 752 mmHg 78%
23:00 +9°C° 0.1 mm 6 mps 752 mmHg 75%

26 September, Saturday

Time Temperature Precipitation Wind Pressure Humidity
00:00 +9°C° 0.1 mm 7 mps 753 mmHg 73%
01:00 +9°C° 0 mm 7 mps 753 mmHg 71%
02:00 +9°C° 0 mm 7 mps 753 mmHg 68%
03:00 +9°C° 0 mm 7 mps 754 mmHg 66%
04:00 +9°C° 0 mm 7 mps 754 mmHg 68%
05:00 +9°C° 0 mm 6 mps 754 mmHg 69%
06:00 +9°C° 0 mm 6 mps 755 mmHg 71%
07:00 +10°C° 0.3 mm 7 mps 755 mmHg 69%
08:00 +11°C° 0.3 mm 7 mps 755 mmHg 68%
09:00 +12°C° 0.3 mm 8 mps 756 mmHg 67%
10:00 +12°C° 0.2 mm 8 mps 756 mmHg 64%
11:00 +13°C° 0.2 mm 9 mps 756 mmHg 61%
12:00 +13°C° 0.2 mm 9 mps 756 mmHg 59%
13:00 +13°C° 0 mm 9 mps 757 mmHg 59%
14:00 +12°C° 0 mm 9 mps 757 mmHg 60%
15:00 +12°C° 0 mm 9 mps 757 mmHg 61%
16:00 +11°C° 0.1 mm 8 mps 758 mmHg 64%
17:00 +10°C° 0.1 mm 7 mps 758 mmHg 67%
18:00 +10°C° 0.1 mm 5 mps 758 mmHg 70%
19:00 +9°C° 0 mm 5 mps 758 mmHg 71%
20:00 +9°C° 0 mm 5 mps 759 mmHg 72%
21:00 +8°C° 0 mm 5 mps 759 mmHg 74%
22:00 +10°C° 0.1 mm 4 mps 759 mmHg 74%
23:00 +10°C° 0.1 mm 4 mps 759 mmHg 75%

27 September, Sunday

Time Temperature Precipitation Wind Pressure Humidity
00:00 +10°C° 0.1 mm 4 mps 759 mmHg 76%
01:00 +10°C° 0.1 mm 4 mps 759 mmHg 77%
02:00 +8°C° 0.1 mm 4 mps 759 mmHg 79%
03:00 +8°C° 0.1 mm 4 mps 759 mmHg 80%
04:00 +8°C° 0 mm 4 mps 759 mmHg 80%
05:00 +8°C° 0 mm 4 mps 759 mmHg 79%
06:00 +8°C° 0 mm 4 mps 760 mmHg 78%
07:00 +9°C° 0 mm 5 mps 760 mmHg 75%
08:00 +10°C° 0 mm 6 mps 760 mmHg 72%
09:00 +11°C° 0 mm 6 mps 760 mmHg 69%
10:00 +12°C° 0.1 mm 7 mps 760 mmHg 70%
11:00 +12°C° 0.1 mm 7 mps 760 mmHg 70%
12:00 +12°C° 0.1 mm 7 mps 760 mmHg 71%
13:00 +12°C° 0.1 mm 7 mps 760 mmHg 72%
14:00 +12°C° 0.1 mm 7 mps 760 mmHg 73%
15:00 +12°C° 0.1 mm 7 mps 760 mmHg 73%
16:00 +11°C° 0 mm 6 mps 761 mmHg 74%
17:00 +11°C° 0 mm 6 mps 761 mmHg 75%
18:00 +10°C° 0 mm 5 mps 761 mmHg 76%
19:00 +10°C° 0 mm 5 mps 762 mmHg 75%
20:00 +10°C° 0 mm 5 mps 762 mmHg 73%
21:00 +10°C° 0 mm 5 mps 762 mmHg 72%
22:00 +10°C° 0 mm 5 mps 762 mmHg 72%
23:00 +10°C° 0 mm 5 mps 762 mmHg 71%
Show more